Location: Unspecified
(0.0000°N, 0.0000°E)
Time: 05:59:48
(UTC+00:00)

Transit 4A - Pass Details

Date: 07 October 2020
Orbit: 862 x 982 km, 66.8° (Epoch: 28 October)

Event Time Altitude Azimuth Distance (km) Brightness Sun altitude
Rises 07:41:59 0° 306° (NW) 3,627 10.5 28.4°
Reaches altitude 10° 07:45:42 10° 285° (WNW) 2,662 9.8 29.3°
Maximum altitude 07:49:08 15° 250° (WSW) 2,278 9.6 30.2°
Drops below altitude 10° 07:52:32 10° 216° (SW) 2,620 10.1 31.0°
Sets 07:56:12 0° 194° (SSW) 3,538 10.9 31.9°
